PST,Max TemperatureF,Mean TemperatureF,Min TemperatureF,Max Dew PointF,MeanDew PointF,Min DewpointF,Max Humidity, Mean Humidity, Min Humidity, Max Sea Level PressureIn, Mean Sea Level PressureIn, Min Sea Level PressureIn, Max VisibilityMiles, Mean VisibilityMiles, Min VisibilityMiles, Max Wind SpeedMPH, Mean Wind SpeedMPH, Max Gust SpeedMPH,PrecipitationIn, CloudCover, Events, WindDirDegrees
2012-12-1,48,43,38,42,37,29,89,68,46,29.72,29.63,29.54,10,10,7,30,13,37,0.06,7,Rain,172
2012-12-2,46,42,38,44,38,32,100,80,60,29.83,29.42,29.17,10,7,1,37,18,44,0.37,6,Rain,191
2012-12-3,49,44,39,35,34,32,79,70,60,30.06,29.97,29.83,10,10,10,32,16,39,T,7,,201
2012-12-4,49,44,38,45,41,31,100,81,62,29.87,29.79,29.71,10,8,2,23,13,35,0.36,8,Rain,169
2012-12-5,48,41,34,45,31,25,93,71,49,30.19,30.01,29.70,10,10,10,32,17,41,T,6,Rain,228
2012-12-6,36,34,31,34,30,29,96,86,75,30.14,30.04,29.92,10,8,2,21,12,25,0.01,8,Rain-Snow,207
2012-12-7,40,35,29,35,31,25,92,84,76,30.04,29.91,29.78,10,8,0,32,16,40,0.06,6,Rain-Snow,222
2012-12-8,35,27,19,24,19,13,92,65,38,30.34,30.15,29.95,10,10,10,20,6,23,0.00,4,,261
2012-12-9,30,24,17,29,24,14,100,89,77,30.43,30.32,30.16,10,7,1,13,4,17,0.02,7,Snow,172
2012-12-10,34,31,28,34,29,27,100,96,92,30.28,30.19,29.99,10,5,0,14,5,16,0.01,8,Fog-Snow,214
2012-12-11,38,36,33,34,32,31,100,88,76,29.99,29.73,29.53,10,8,1,15,5,18,0.03,8,Rain-Snow,186
2012-12-12,33,31,28,34,32,28,100,96,92,29.99,29.74,29.54,10,3,0,12,5,14,0.18,8,Fog-Snow,222
2012-12-13,33,26,19,32,27,18,100,96,92,30.04,29.96,29.81,10,6,0,9,3,12,T,7,Fog-Snow,187
2012-12-14,30,25,19,29,27,19,100,96,91,29.95,29.83,29.74,10,4,0,8,2,10,0.07,8,Fog-Snow,184
2012-12-15,32,30,28,30,28,25,100,89,78,29.96,29.78,29.55,10,6,0,10,5,15,0.19,8,Snow,153
2012-12-16,33,30,27,32,29,26,100,93,85,29.78,29.60,29.17,10,4,0,23,13,29,0.32,8,Fog-Snow,181
2012-12-17,39,33,27,36,30,23,96,83,69,29.80,29.39,29.11,10,10,10,48,26,58,0.04,7,Rain,210
2012-12-18,31,27,23,25,23,21,92,82,72,29.99,29.91,29.80,10,10,9,22,10,26,T,6,Snow,201
2012-12-19,33,28,22,27,24,20,96,83,69,30.05,29.96,29.86,10,4,0,24,13,33,0.16,8,Snow,161
2012-12-20,42,37,31,32,26,21,92,68,43,29.90,29.83,29.75,10,8,1,25,14,36,0.03,8,Rain-Snow,156
2012-12-21,38,35,32,34,33,32,100,91,82,29.92,29.87,29.79,10,6,0,12,5,16,0.08,8,Fog-Rain-Snow,92
2012-12-22,41,36,31,36,33,30,100,90,79,29.83,29.71,29.58,10,10,7,20,8,26,0.07,7,Rain,142
2012-12-23,38,34,30,32,29,27,100,82,64,29.91,29.76,29.58,10,8,1,18,8,25,0.26,7,Snow,111
2012-12-24,32,29,25,30,29,25,100,96,92,30.19,29.96,29.64,10,3,0,18,6,23,0.12,7,Fog-Snow,225
2012-12-25,32,29,25,29,28,25,100,93,85,30.19,29.99,29.82,10,3,0,12,5,14,0.07,8,Fog-Snow,83
2012-12-26,31,28,25,29,28,25,100,93,85,29.95,29.85,29.75,10,6,0,10,4,13,0.03,8,Fog-Snow,53
2012-12-27,30,29,28,29,28,27,100,96,92,30.16,30.05,29.89,10,6,2,9,3,10,0.02,8,Snow,233
2012-12-28,31,26,20,28,26,20,100,96,92,30.24,30.18,30.11,10,4,0,7,2,8,T,8,Fog-Snow,323
2012-12-29,25,20,15,24,21,16,100,94,88,30.23,30.18,30.09,8,1,0,9,3,12,0.02,8,Fog-Snow,174
2012-12-30,26,23,19,24,21,18,100,94,88,30.36,30.29,30.13,10,4,0,9,5,10,T,8,Fog-Snow,203
2012-12-31,26,18,9,23,19,7,100,91,81,30.50,30.38,30.30,10,7,2,7,3,10,T,7,,306